Location: Buckland
(65.9785°N, 161.1281°W)
Time: 22:03:51
(UTC+00:00)

SPROUT - Pass Details

Date: 22 January 2021
Orbit: 597 x 610 km, 97.9° (Epoch: 07 March)

Event Time Altitude Azimuth Distance (km) Brightness Sun altitude
Exits shadow 06:16:49 11° 6° (N) 1,940 ? -26.0°
Drops below altitude 10° 06:17:29 10° 357° (N) 1,984 ? -26.1°
Sets 06:21:25 0° 321° (NW) 2,888 ? -26.5°
